[[{"header":{"parameterUnit":"m.s-1","parameterCategory":1,"la1":30.2991,"la2":30.254,"lo1":-89.0895,"lo2":-89.0444,"dy":0.0017,"dx":0.0017,"nx":28,"ny":28,"refTime":"2025-04-29T09:00:00:Z","depth":0,"parameterNumber":2,"parameterNumberName":"U-component_of_WINDS"},"data":[0,0,0,0,0,0,0,0,0,0,0,0,0,0,0,0,0,0,0,0,0,0,0,0,0,0,0,0,0,0,0,0,0,0,0,0,0,0,0,0,0,0,0,0,0,0,0,0,0,0,0,0,0,0,0,0,0,0,-1.9569,-1.9569,0,-1.9571,-1.9572,-1.9572,-1.9538,-1.9537,-1.9536,-1.9535,-1.9538,-1.9539,-1.954,0,0,0,0,0,0,0,0,0,0,0,0,0,-1.9538,-1.9539,-1.9569,-1.9569,-1.957,-1.9571,-1.9572,-1.9572,-1.9538,-1.9537,-1.9536,-1.9535,-1.9538,-1.9539,-1.954,0,0,0,0,0,0,0,0,0,0,0,0,0,-1.9547,-1.9539,-1.9569,-1.9553,-1.9551,-1.9571,-1.9572,-1.9572,-1.9538,-1.9537,-1.9535,-1.9534,-1.9537,-1.9539,-1.954,-1.9576,0,0,-1.9544,-1.9545,0,0,0,0,0,0,0,0,-1.9547,-1.9548,-1.9555,-1.9554,-1.9552,-1.9553,-1.9562,-1.9573,-1.9538,-1.9543,-1.9535,-1.9533,-1.9544,-1.9545,-1.9548,-1.9576,-1.9576,-1.9544,-1.9545,-1.9546,-1.9546,0,0,0,0,0,0,0,-1.9546,-1.9548,-1.957,-1.9555,-1.9554,-1.9546,-1.9546,-1.9564,-1.9551,-1.9543,-1.954,-1.9541,-1.9543,-1.9547,-1.9548,-1.9576,-1.9544,-1.9546,-1.9546,-1.9547,-1.9636,-1.9637,0,0,0,0,0,0,-1.9548,-1.9548,-1.957,-1.957,-1.9546,-1.9548,-1.9547,-1.9554,-1.9551,-1.9549,-1.9542,-1.9539,-1.9545,-1.9546,-1.9548,-1.9591,-1.9546,-1.9547,-1.9548,-1.9634,-1.9636,-1.9638,0,0,0,0,0,0,-1.9547,-1.955,-1.957,-1.9558,-1.956,-1.955,-1.9558,-1.9555,-1.9559,-1.9551,-1.9548,-1.9548,-1.9544,-1.9546,-1.957,-1.959,-1.9548,-1.9549,-1.9632,-1.9635,-1.9637,-1.9676,0,0,0,0,0,0,-1.9546,-1.955,-1.9563,-1.9559,-1.9561,-1.9591,-1.9559,-1.9556,-1.9561,-1.9558,-1.9556,-1.9554,-1.9543,-1.9568,-1.9571,-1.9591,-1.955,-1.963,-1.9633,-1.9636,-1.9673,-1.9679,-1.9685,0,0,0,0,0,-1.9545,-1.9574,-1.9564,-1.9567,-1.9577,-1.9592,-1.9594,-1.958,-1.9563,-1.9576,-1.9571,-1.9554,-1.9588,-1.957,-1.9574,-1.9595,-1.9629,-1.9632,-1.9636,-1.967,-1.9678,-1.9685,0,0,0,0,0,0,-1.9581,-1.9573,-1.9562,-1.959,-1.9592,-1.9587,-1.9603,-1.9589,-1.9596,-1.9593,-1.9576,-1.9576,-1.9603,-1.9601,-1.9582,-1.963,-1.9605,-1.961,-1.963,-1.9638,-1.9644,-1.9643,-1.9551,0,0,0,0,0,-1.9592,-1.9604,-1.9597,-1.9623,-1.9624,-1.9614,-1.962,-1.9609,-1.9611,-1.9612,-1.9609,-1.9611,-1.9622,-1.963,-1.964,-1.9673,-1.9672,-1.9689,-1.9695,-1.97,-1.9704,-1.9722,-1.9729,-1.9649,-1.9649,-1.9649,0,0,-1.9614,-1.9612,-1.9621,-1.963,-1.963,-1.9644,-1.9615,-1.963,-1.9641,-1.9614,-1.9636,-1.9634,-1.9636,-1.9665,-1.9677,-1.9664,-1.9726,-1.9704,-1.9708,-1.9709,-1.9726,-1.9734,-1.9741,-1.9651,-1.9651,-1.965,0,0,-1.9663,-1.9662,-1.9684,-1.9685,-1.9686,-1.9679,-1.9685,-1.9682,-1.9679,-1.9701,-1.9682,-1.9695,-1.9714,-1.9716,-1.972,-1.9772,-1.9757,-1.9776,-1.9807,-1.9825,-1.9831,-1.9837,-1.9855,-1.9862,-1.978,-1.978,-1.978,0,-1.9691,-1.9711,-1.9696,-1.9714,-1.9718,-1.9696,-1.9718,-1.972,-1.9725,-1.9729,-1.9715,-1.9739,-1.9739,-1.9768,-1.9781,-1.9785,-1.9791,-1.9775,-1.9831,-1.9837,-1.9842,-1.9859,-1.9866,-1.9782,-1.9782,-1.9781,-1.9781,0,-1.9746,-1.976,-1.9777,-1.9782,-1.9789,-1.9809,-1.9798,-1.9807,-1.9797,-1.9791,-1.9815,-1.9814,-1.9823,-1.983,-1.982,-1.9858,-1.985,-1.9834,-1.9808,-1.9852,-1.9868,-1.9875,-1.9785,-1.9784,-1.9784,-1.9783,0,0,-1.9815,-1.9813,-1.9819,-1.9822,-1.9822,-1.9833,-1.9853,-1.9862,-1.987,-1.9875,-1.9891,-1.9908,-1.9894,-1.9898,-1.9889,-1.9904,-1.9946,-1.9886,-1.9886,-1.9897,-1.9988,-2.0,-2.0008,-1.9936,-1.9937,-1.9938,-1.9988,0,-1.9862,-1.9894,-1.9882,-1.9915,-1.9929,-1.9908,-1.9925,-1.9928,-1.9924,-1.9935,-1.9931,-1.9944,-1.9924,-1.9927,-1.9941,-1.9938,-1.9964,-1.9934,-1.9951,-1.9952,-1.995,-2.0017,-2.0029,-2.0076,-1.9994,-1.9995,-1.9996,0,-1.9921,-1.9928,-1.9962,-1.9962,-1.9967,-1.9982,-1.999,-2.0001,-2.0004,-2.0001,-2.0006,-1.9994,-2.0013,-1.9989,-2.0016,-1.9996,-2.0002,-2.0002,-2.0003,-2.0004,-1.9976,-2.0019,-2.0091,-2.0098,-2.0006,-2.0005,-2.0005,0,-1.9968,-1.9986,-2.0009,-2.0012,-2.0012,-2.0023,-2.0024,-2.0025,-2.0032,-2.004,-2.0044,-2.0054,-2.006,-2.0068,-2.0059,-2.0042,-2.0088,-2.0062,-2.0085,-2.0086,-2.0095,-2.0095,-2.0169,-2.01,-2.01,-2.01,-2.01,0,-2.0022,-2.0044,-2.0031,-2.0045,-2.0069,-2.0056,-2.0081,-2.0079,-2.0081,-2.0095,-2.0079,-2.0092,-2.008,-2.0092,-2.0086,-2.0109,-2.0112,-2.011,-2.0108,-2.0111,-2.0111,-2.0115,-2.0111,-2.0102,-2.0102,-2.0101,-2.0101,0,-2.0078,-2.007,-2.0094,-2.0092,-2.0092,-2.011,-2.0109,-2.0123,-2.0118,-2.0136,-2.014,-2.0133,-2.0147,-2.0139,-2.0154,-2.0149,-2.0181,-2.0174,-2.0179,-2.0177,-2.0201,-2.0199,-2.028,-2.029,-2.0215,-2.0216,-2.0217,0,-2.0113,-2.0129,-2.0129,-2.0137,-2.0139,-2.0152,-2.0159,-2.0148,-2.0156,-2.0162,-2.0175,-2.0188,-2.0197,-2.0221,-2.0218,-2.0229,-2.0223,-2.0251,-2.0224,-2.0228,-2.0223,-2.0222,-2.0224,-2.0256,-2.0256,-2.0257,-2.0258,0,-2.0175,-2.017,-2.0181,-2.019,-2.0199,-2.0206,-2.0212,-2.022,-2.0209,-2.0219,-2.0233,-2.0241,-2.0256,-2.027,-2.028,-2.0281,-2.0268,-2.0266,-2.0272,-2.0276,-2.0278,-2.0277,-2.0193,-2.0264,-2.0263,-2.0263,-2.0263,-2.0262,-2.0221,-2.0235,-2.0237,-2.025,-2.0253,-2.0259,-2.0272,-2.027,-2.0281,-2.0293,-2.0286,-2.0303,-2.0307,-2.0319,-2.0322,-2.0336,-2.0325,-2.0334,-2.0336,-2.0338,-2.0342,-2.0276,-2.0338,-2.0338,-2.0338,-2.0338,-2.0337,0,-2.0282,-2.0283,-2.0295,-2.0304,-2.0314,-2.0301,-2.0307,-2.0317,-2.0332,-2.0337,-2.0347,-2.0364,-2.0377,-2.0375,-2.0388,-2.0399,-2.0393,-2.0403,-2.0401,-2.0402,-2.0351,-2.0344,-2.0407,-2.0407,-2.0407,-2.0407,-2.0407,-2.0407,-2.0315,-2.0338,-2.0334,-2.0359,-2.036,-2.0377,-2.0381,-2.0387,-2.0391,-2.0411,-2.0422,-2.0421,-2.0423,-2.0436,-2.0448,-2.0447,-2.0452,-2.0464,-2.0461,-2.0413,-2.0406,-2.0399,-2.0393,-2.0465,-2.0465,-2.0511,-2.0511,-2.0512]},{"header":{"parameterUnit":"m.s-1","parameterCategory":1,"la1":30.2991,"la2":30.254,"lo1":-89.0895,"lo2":-89.0444,"dy":0.0017,"dx":0.0017,"nx":28,"ny":28,"refTime":"2025-04-29T09:00:00:Z","depth":0,"parameterNumber":3,"parameterNumberName":"V-component_of_WINDS"},"data":[0,0,0,0,0,0,0,0,0,0,0,0,0,0,0,0,0,0,0,0,0,0,0,0,0,0,0,0,0,0,0,0,0,0,0,0,0,0,0,0,0,0,0,0,0,0,0,0,0,0,0,0,0,0,0,0,0,0,2.6558,2.6558,0,2.6507,2.6506,2.6506,2.6476,2.6476,2.6475,2.6475,2.6419,2.6418,2.6416,0,0,0,0,0,0,0,0,0,0,0,0,0,2.6629,2.6628,2.6559,2.6558,2.6557,2.6507,2.6506,2.6506,2.6476,2.6476,2.6475,2.6475,2.6419,2.6418,2.6416,0,0,0,0,0,0,0,0,0,0,0,0,0,2.659,2.6627,2.6559,2.6536,2.6534,2.6507,2.6506,2.6505,2.6476,2.6476,2.6475,2.6475,2.642,2.6418,2.6416,2.6406,0,0,2.6409,2.6408,0,0,0,0,0,0,0,0,2.6592,2.6587,2.654,2.6538,2.6535,2.6498,2.651,2.6472,2.6476,2.6498,2.6475,2.6475,2.6445,2.6441,2.6431,2.6404,2.6401,2.6409,2.6408,2.6407,2.6406,0,0,0,0,0,0,0,2.6595,2.6589,2.6538,2.654,2.6536,2.6528,2.6522,2.6503,2.6473,2.6496,2.6493,2.6488,2.6443,2.6434,2.643,2.64,2.6409,2.6407,2.6406,2.6405,2.6363,2.6363,0,0,0,0,0,0,2.6601,2.6592,2.654,2.6536,2.6564,2.6527,2.6521,2.651,2.6473,2.6467,2.6488,2.6487,2.6437,2.6432,2.6428,2.6415,2.6407,2.6405,2.6404,2.6363,2.6363,2.6363,0,0,0,0,0,0,2.6603,2.6597,2.6542,2.6563,2.6556,2.6526,2.6514,2.6509,2.6499,2.6467,2.6461,2.6484,2.6437,2.6431,2.6412,2.6412,2.6404,2.6402,2.6362,2.6363,2.6363,2.6388,0,0,0,0,0,0,2.6605,2.6598,2.6594,2.6564,2.6555,2.6528,2.6514,2.6508,2.6496,2.6493,2.6461,2.6456,2.6436,2.6416,2.641,2.6409,2.6401,2.6362,2.6363,2.6363,2.6387,2.6389,2.6391,0,0,0,0,0,2.6608,2.6602,2.6594,2.6588,2.655,2.6528,2.6523,2.6501,2.6496,2.6492,2.6472,2.6457,2.6413,2.6414,2.6408,2.6406,2.6362,2.6362,2.6363,2.6386,2.6388,2.6391,0,0,0,0,0,0,2.6632,2.6598,2.6588,2.6573,2.6554,2.6523,2.6517,2.6504,2.6485,2.6483,2.6456,2.645,2.6434,2.6418,2.6419,2.6395,2.6386,2.6385,2.6406,2.6408,2.641,2.6414,2.6399,0,0,0,0,0,2.6636,2.6622,2.6592,2.6582,2.6573,2.6547,2.6536,2.6522,2.65,2.6491,2.647,2.6448,2.643,2.6418,2.6399,2.6385,2.6377,2.638,2.6382,2.6384,2.6383,2.6375,2.6376,2.6364,2.6364,2.6364,0,0,2.6643,2.6623,2.6615,2.6586,2.657,2.6555,2.654,2.6525,2.6514,2.6488,2.647,2.6454,2.6428,2.6412,2.6404,2.6398,2.6385,2.6384,2.6386,2.6384,2.6375,2.6377,2.6378,2.6364,2.6364,2.6364,0,0,2.6649,2.6633,2.6622,2.6606,2.6582,2.6565,2.6563,2.6534,2.6523,2.6504,2.6485,2.6471,2.644,2.6423,2.641,2.6411,2.6397,2.6406,2.6415,2.6407,2.6408,2.6409,2.6409,2.641,2.6405,2.6405,2.6405,0,2.6661,2.6639,2.6618,2.6605,2.6593,2.6571,2.656,2.6545,2.6516,2.6507,2.6502,2.6463,2.6444,2.6424,2.6425,2.6415,2.6411,2.6409,2.641,2.641,2.6411,2.6411,2.6411,2.6406,2.6406,2.6406,2.6406,0,2.6655,2.6641,2.6635,2.6609,2.6596,2.6584,2.656,2.655,2.6536,2.652,2.6502,2.6479,2.6455,2.6449,2.6436,2.6427,2.6425,2.6415,2.6406,2.6414,2.6413,2.6413,2.6408,2.6408,2.6407,2.6407,0,0,2.6674,2.6637,2.6636,2.6624,2.6596,2.6584,2.6571,2.6549,2.6541,2.6521,2.6509,2.6484,2.6476,2.6461,2.6445,2.6439,2.6442,2.643,2.6429,2.6433,2.6431,2.6439,2.6439,2.6433,2.6432,2.6432,2.6434,0,2.6676,2.6653,2.6634,2.6617,2.6604,2.6584,2.6572,2.6554,2.6538,2.6524,2.6506,2.6489,2.6479,2.647,2.6462,2.6443,2.6441,2.6443,2.6421,2.642,2.6427,2.6439,2.6447,2.6449,2.6433,2.6433,2.6433,0,2.6674,2.6658,2.664,2.6615,2.6608,2.6599,2.6578,2.6565,2.6543,2.6532,2.6517,2.6501,2.6486,2.6479,2.6458,2.6459,2.6449,2.6439,2.6438,2.6435,2.6427,2.6436,2.6449,2.645,2.6433,2.6433,2.6433,0,2.669,2.6663,2.6649,2.6639,2.661,2.6603,2.659,2.6569,2.6558,2.6539,2.6532,2.6511,2.65,2.6485,2.6464,2.646,2.6445,2.6435,2.6435,2.6435,2.6432,2.6432,2.6443,2.6426,2.6426,2.6426,2.6426,0,2.6694,2.6684,2.6656,2.6647,2.6636,2.6614,2.6603,2.6588,2.657,2.6558,2.6539,2.6528,2.6501,2.6486,2.647,2.6455,2.645,2.644,2.6436,2.6442,2.6443,2.6435,2.6434,2.6426,2.6426,2.6426,2.6426,0,2.6709,2.669,2.6674,2.6647,2.6641,2.6633,2.661,2.6601,2.6585,2.657,2.6565,2.654,2.6522,2.65,2.6475,2.6463,2.645,2.6444,2.6458,2.6455,2.6456,2.6456,2.6462,2.6461,2.6445,2.6445,2.6445,0,2.6712,2.6705,2.6678,2.667,2.6658,2.6644,2.6633,2.6611,2.6601,2.6577,2.657,2.6551,2.6535,2.6507,2.6486,2.6466,2.6459,2.6462,2.6456,2.6462,2.6459,2.646,2.6459,2.6464,2.6464,2.6464,2.6465,0,2.6721,2.6712,2.6698,2.668,2.6668,2.6653,2.6636,2.663,2.6605,2.6594,2.6576,2.6564,2.6539,2.652,2.6499,2.6484,2.647,2.6467,2.6466,2.6472,2.648,2.6476,2.6462,2.6467,2.6467,2.6466,2.6466,2.6466,2.673,2.6723,2.6704,2.6688,2.6674,2.666,2.665,2.6634,2.662,2.6599,2.6587,2.657,2.6549,2.6518,2.6505,2.6491,2.6485,2.6484,2.6483,2.6483,2.6485,2.6483,2.6486,2.6486,2.6486,2.6486,2.6486,0,2.6738,2.6725,2.6711,2.669,2.6678,2.6668,2.665,2.664,2.6625,2.6608,2.6593,2.6573,2.6555,2.6533,2.6514,2.6507,2.65,2.6502,2.6502,2.6499,2.6491,2.6494,2.6508,2.6508,2.6508,2.6508,2.6508,2.6508,2.674,2.6728,2.6717,2.6697,2.6684,2.6668,2.6658,2.6645,2.6631,2.661,2.6596,2.6583,2.6563,2.6543,2.6526,2.652,2.6513,2.6518,2.651,2.6502,2.65,2.6498,2.6501,2.6517,2.6517,2.652,2.652,2.652]}]]